CW5624 Weather Reports


Display with metric or nautical units.
time (UTC)temp
F
wind
direction
speed
MPH
gust
MPH
rain 1hr
in
rain 24hr
in
rain mn
in
humidity
%
barometer
mb
20191022195207 56 55 1.0 4.0 0.00 0.00 0.00 82 1017.7
20191022194207 56 71 0.0 5.0 0.00 0.00 0.00 83 1017.7
20191022193207 56 177 0.0 6.0 0.00 0.00 0.00 83 1017.7
20191022192207 56 197 0.0 5.0 0.00 0.00 0.00 83 1017.9
20191022191207 56 200 0.0 5.0 0.00 0.00 0.00 83 1018.0
20191022190207 57 159 0.0 6.0 0.00 0.00 0.00 84 1018.2
20191022185207 57 167 1.0 7.0 0.00 0.00 0.00 84 1018.2
20191022184207 57 146 0.0 3.0 0.00 0.00 0.00 84 1018.4
20191022183207 57 173 0.0 3.0 0.00 0.00 0.00 84 1018.2
20191022182207 57 217 1.0 3.0 0.00 0.00 0.00 84 1018.7
20191022181207 57 149 0.0 3.0 0.00 0.00 0.00 83 1019.0
20191022180207 57 153 0.0 2.0 0.00 0.00 0.00 83 1018.9
20191022175207 57 185 0.0 3.0 0.00 0.00 0.00 84 1019.0
20191022174207 57 172 0.0 2.0 0.00 0.00 0.00 84 1019.2
20191022173207 57 172 0.0 3.0 0.00 0.00 0.00 83 1019.4
20191022172207 57 242 1.0 4.0 0.00 0.00 0.00 83 1019.3
20191022171207 57 218 0.0 5.0 0.00 0.00 0.00 82 1019.2
20191022170207 57 222 1.0 3.0 0.00 0.00 0.00 83 1019.4
20191022165207 57 222 0.0 4.0 0.00 0.00 0.00 82 1019.6
20191022164207 57 186 1.0 5.0 0.00 0.00 0.00 81 1019.4
20191022163207 58 182 0.0 5.0 0.00 0.00 0.00 81 1019.4
20191022162207 58 158 0.0 6.0 0.00 0.00 0.00 81 1019.4
20191022161207 58 173 0.0 5.0 0.00 0.00 0.00 81 1019.5
20191022160207 58 126 0.0 5.0 0.00 0.00 0.00 80 1019.7
20191022155207 58 108 4.0 5.0 0.00 0.00 0.00 81 1019.8
20191022154207 58 203 1.0 7.0 0.00 0.00 0.00 80 1019.6
20191022153207 58 210 4.0 9.0 0.00 0.00 0.00 80 1019.7
20191022152207 58 92 0.0 8.0 0.00 0.00 0.00 82 1019.7
20191022151207 58 236 0.0 6.0 0.00 0.00 0.00 84 1019.7
20191022150207 57 214 0.0 9.0 0.00 0.00 0.00 85 1019.8
20191022145207 56 251 2.0 7.0 0.00 0.00 0.00 89 1019.8
20191022144207 56 331 1.0 4.0 0.00 0.00 0.00 94 1019.7
20191022143207 55 195 0.0 1.0 0.00 0.00 0.00 97 1020.1
20191022142207 54 199 2.0 2.0 0.00 0.00 0.00 97 1020.5
20191022141207 53 252 1.0 4.0 0.00 0.00 0.00 98 1020.6
20191022140207 53 202 0.0 1.0 0.00 0.00 0.00 98 1020.4
20191022135208 52 202 0.0 3.0 0.00 0.00 0.00 98 1020.8
20191022134207 52 180 0.0 2.0 0.00 0.00 0.00 97 1021.0
20191022133207 52 206 0.0 3.0 0.00 0.00 0.00 98 1021.3
20191022132207 52 196 1.0 1.0 0.00 0.00 0.00 98 1021.5
20191022131208 52 298 0.0 4.0 0.00 0.00 0.00 98 1021.0
20191022130207 52 133 1.0 2.0 0.00 0.00 0.00 98 1021.3
20191022125207 51 133 0.0 2.0 0.00 0.00 0.00 98 1021.5
20191022124208 51 133 0.0 0.0 0.00 0.00 0.00 98 1021.3
20191022123208 51 133 0.0 0.0 0.00 0.00 0.00 98 1021.1
20191022122208 50 133 0.0 0.0 0.00 0.00 0.00 98 1020.8
20191022121207 50 133 0.0 0.0 0.00 0.00 0.00 97 1020.5
20191022120208 50 133 0.0 0.0 0.00 0.00 0.00 97 1020.9
20191022115208 50 133 0.0 0.0 0.00 0.00 0.00 97 1020.7
20191022114208 50 133 0.0 0.0 0.00 0.00 0.00 97 1020.6
20191022113208 50 133 0.0 0.0 0.00 0.00 0.00 97 1020.5
20191022112208 50 133 0.0 1.0 0.00 0.00 0.00 97 1020.3
20191022111208 50 133 0.0 1.0 0.00 0.00 0.00 97 1020.1
20191022110208 50 133 0.0 0.0 0.00 0.00 0.00 97 1020.8
20191022105208 49 133 0.0 0.0 0.00 0.00 0.00 97 1020.3
20191022104208 49 133 0.0 2.0 0.00 0.00 0.00 97 1020.3
20191022103208 49 132 0.0 1.0 0.00 0.00 0.00 97 1020.2
20191022102208 49 132 0.0 1.0 0.00 0.00 0.00 97 1020.1
20191022101208 49 132 0.0 0.0 0.00 0.00 0.00 97 1020.1
20191022100208 49 132 0.0 1.0 0.00 0.00 0.00 97 1020.1
20191022094208 48 132 0.0 3.0 0.00 0.00 0.00 97 1020.3
20191022093208 48 121 0.0 1.0 0.00 0.00 0.00 97 1020.2
20191022092208 48 121 0.0 2.0 0.00 0.00 0.00 97 1020.3
20191022091209 48 117 0.0 1.0 0.00 0.00 0.00 97 1020.2
20191022090208 48 196 0.0 1.0 0.00 0.00 0.00 97 1020.4
20191022085208 48 196 0.0 0.0 0.00 0.00 0.00 97 1020.7
20191022084208 48 196 0.0 1.0 0.00 0.00 0.00 97 1020.8
20191022083208 48 196 0.0 0.0 0.00 0.00 0.00 97 1020.7
20191022082208 48 196 0.0 1.0 0.00 0.00 0.00 97 1020.4
20191022081208 48 196 0.0 0.0 0.00 0.00 0.00 97 1020.3
20191022080208 47 196 0.0 2.0 0.00 0.00 0.00 97 1020.3
20191022075208 47 196 0.0 0.0 0.00 0.00 0.00 97 1020.2
20191022074208 47 196 0.0 0.0 0.00 0.00 0.00 97 1020.4
20191022073208 46 196 0.0 0.0 0.00 0.00 0.00 97 1020.6
20191022072208 46 196 0.0 0.0 0.00 0.00 0.00 97 1020.5
20191022071208 46 196 0.0 0.0 0.00 0.00 0.00 97 1020.8
20191022070208 45 196 0.0 0.0 0.00 0.00 0.00 96 1021.1
20191022065208 45 196 0.0 0.0 0.00 0.00 0.00 96 1021.1
20191022064208 45 196 0.0 0.0 0.00 0.00 0.00 96 1021.0
20191022063208 45 196 0.0 0.0 0.00 0.00 0.00 96 1020.9
20191022062208 44 196 0.0 0.0 0.00 0.00 0.00 96 1020.9
20191022061208 44 196 0.0 0.0 0.00 0.00 0.00 96 1021.0
20191022060208 44 196 0.0 0.0 0.00 0.00 0.00 96 1021.0
20191022055209 44 196 0.0 0.0 0.00 0.00 0.00 96 1021.0
20191022054208 44 196 0.0 0.0 0.00 0.00 0.00 96 1021.1
20191022053208 44 196 0.0 0.0 0.00 0.00 0.00 96 1021.2
20191022052208 43 196 0.0 0.0 0.00 0.00 0.00 95 1021.3
20191022051208 43 196 0.0 0.0 0.00 0.00 0.00 95 1021.3
20191022050208 44 196 0.0 0.0 0.00 0.00 0.00 95 1021.1
20191022045208 44 196 0.0 0.0 0.00 0.00 0.00 95 1020.8
20191022044208 44 196 0.0 0.0 0.00 0.00 0.00 95 1020.8
20191022043208 44 196 0.0 0.0 0.00 0.00 0.00 95 1020.7
20191022042208 44 196 0.0 0.0 0.00 0.00 0.00 95 1020.7
20191022041208 44 196 0.0 0.0 0.00 0.00 0.00 95 1020.7
20191022040208 44 196 0.0 0.0 0.00 0.00 0.00 95 1020.9
20191022035208 44 196 0.0 0.0 0.00 0.00 0.00 95 1021.2
20191022034208 44 195 0.0 0.0 0.00 0.00 0.00 95 1021.1
20191022033208 45 196 0.0 0.0 0.00 0.00 0.00 95 1021.1
20191022032208 45 196 0.0 0.0 0.00 0.00 0.00 94 1021.4
20191022031208 45 196 0.0 0.0 0.00 0.00 0.00 94 1021.4
20191022030208 45 196 0.0 0.0 0.00 0.00 0.00 94 1021.2
20191022025208 46 196 0.0 0.0 0.00 0.00 0.00 94 1021.2
20191022024208 46 196 0.0 0.0 0.00 0.00 0.00 94 1021.3
20191022023209 46 196 0.0 0.0 0.00 0.00 0.00 94 1021.6
20191022022208 46 196 0.0 0.0 0.00 0.00 0.00 94 1021.8
20191022021208 46 196 0.0 0.0 0.00 0.00 0.00 94 1021.7
20191022020208 46 196 0.0 0.0 0.00 0.00 0.00 93 1021.4
20191022015208 46 196 0.0 0.0 0.00 0.00 0.00 93 1021.5
20191022014208 47 196 0.0 0.0 0.00 0.00 0.00 93 1021.5
20191022013208 47 196 0.0 0.0 0.00 0.00 0.00 93 1021.5
20191022012209 47 196 0.0 0.0 0.00 0.00 0.00 93 1021.7
20191022011208 47 196 0.0 0.0 0.00 0.00 0.00 93 1021.5
20191022010209 47 196 0.0 0.0 0.00 0.00 0.00 92 1021.3
20191022005209 48 196 0.0 0.0 0.00 0.00 0.00 92 1021.1
20191022004209 48 196 0.0 0.0 0.00 0.00 0.00 92 1020.7
20191022003209 48 196 0.0 0.0 0.00 0.00 0.00 92 1020.5
20191022002209 48 196 0.0 0.0 0.00 0.00 0.00 91 1020.6
20191022001209 49 196 0.0 0.0 0.00 0.00 0.00 91 1020.6
20191022000209 49 196 0.0 0.0 0.00 0.00 0.00 91 1020.7
20191021235209 50 196 0.0 0.0 0.00 0.00 0.00 90 1020.6
20191021234209 50 196 0.0 0.0 0.00 0.00 0.00 89 1020.7
20191021233209 50 196 0.0 0.0 0.00 0.00 0.00 89 1020.6
20191021232209 50 196 0.0 0.0 0.00 0.00 0.00 89 1020.7
20191021231209 51 196 0.0 0.0 0.00 0.00 0.00 88 1020.6
20191021230209 51 196 0.0 0.0 0.00 0.00 0.00 87 1020.7
20191021225209 52 196 0.0 0.0 0.00 0.00 0.00 87 1020.5
20191021224209 52 196 0.0 0.0 0.00 0.00 0.00 86 1020.5
20191021223209 53 196 0.0 0.0 0.00 0.00 0.00 85 1020.2
20191021222209 53 195 0.0 0.0 0.00 0.00 0.00 84 1020.2
20191021221209 54 195 0.0 0.0 0.00 0.00 0.00 83 1020.2
20191021220209 54 196 0.0 0.0 0.00 0.00 0.00 81 1020.1
20191021215209 55 196 0.0 0.0 0.00 0.00 0.00 80 1020.2
20191021214209 56 195 0.0 0.0 0.00 0.00 0.00 80 1020.1
20191021213209 56 195 0.0 0.0 0.00 0.00 0.00 80 1020.0
20191021212209 56 195 0.0 0.0 0.00 0.00 0.00 79 1019.7
20191021211209 57 195 0.0 1.0 0.00 0.00 0.00 78 1019.6
20191021210209 57 196 0.0 4.0 0.00 0.00 0.00 78 1019.6
20191021205209 57 136 0.0 1.0 0.00 0.00 0.00 78 1019.6
20191021204209 58 136 0.0 3.0 0.00 0.00 0.00 78 1019.2
20191021203209 58 136 0.0 3.0 0.00 0.00 0.00 77 1019.3
20191021202209 58 119 0.0 2.0 0.00 0.00 0.00 77 1019.2
20191021201209 58 117 0.0 3.0 0.00 0.00 0.00 75 1019.2
20191021200209 58 180 2.0 3.0 0.00 0.00 0.00 77 1019.1